Fairmont, MN

4:29 AM CST on February 21, 2017 (GMT -0600)
Fairmont Municipal

Weather History for KFRM - May, 2013

Change the Weather History Date:

Saturday, May 11, 2013

  Actual Average Record
Temperature  
Mean Temperature 49 °F -  
Max Temperature 57 °F 68 °F 85 °F (1958)
Min Temperature 39 °F 47 °F 32 °F (1966)
Degree Days  
Heating Degree Days 16    
Moisture  
Dew Point 25 °F    
Average Humidity 43    
Maximum Humidity 70    
Minimum Humidity 22    
Precipitation  
Precipitation 0.00 in - - ()
Sea Level Pressure  
Sea Level Pressure 30.13 in    
Wind  
Wind Speed 23 mph (NW)    
Max Wind Speed 33 mph    
Max Gust Speed 44 mph    
Visibility 10 miles    
Events      
Averages and records for this station are not official NWS values.
T = Trace of Precipitation, MM = Missing Value Source: NWS Daily Summary

Daily Weather History Graph

Daily Weather History Graph

Search for Another Location

Airport or City:

Trip Planner

Search our weather history database for the weather conditions in past years. The results will help you decide how hot, cold, wet, or windy it might be!

Date:

Astronomy

May. 11, 2013 Rise Set
Actual Time 5:56 AM CDT 8:31 PM CDT
Civil Twilight 5:24 AM CDT 9:04 PM CDT
Nautical Twilight 4:43 AM CDT 9:45 PM CDT
Astronomical Twilight 3:56 AM CDT 10:32 PM CDT
Moon 7:04 AM CDT (5/11) 10:14 PM CDT (5/11)
Length of Visible Light 15h 40m
Length of Day
14h 35m
Waxing Crescent, 3% of the Moon is Illuminated
May 11
Waxing Crescent
May 17
First Quarter
May 24
Full
May 31
Last Quarter
Jun 8
New

Hourly Weather History & Observations

Time (CDT) Temp. Windchill Dew Point Humidity Pressure Visibility Wind Dir Wind Speed Gust Speed Precip Events Conditions
12:15 AM 57.2 °F - 41.0 °F 55% 29.96 in 10.0 mi WNW 25.3 mph 29.9 mph N/A   Partly Cloudy
12:35 AM 55.4 °F - 39.2 °F 54% 29.97 in 10.0 mi WNW 21.9 mph 26.5 mph N/A   Mostly Cloudy
12:55 AM 53.6 °F - 37.4 °F 54% 29.98 in 10.0 mi WNW 24.2 mph 31.1 mph N/A   Mostly Cloudy
1:15 AM 53.6 °F - 37.4 °F 54% 29.99 in 10.0 mi WNW 17.3 mph 31.1 mph N/A   Scattered Clouds
1:35 AM 51.8 °F - 35.6 °F 54% 29.99 in 10.0 mi WNW 26.5 mph 34.5 mph N/A   Partly Cloudy
1:55 AM 50.0 °F - 35.6 °F 58% 29.99 in 10.0 mi WNW 27.6 mph 33.4 mph N/A   Clear
2:15 AM 48.2 °F - 35.6 °F 62% 30.01 in 10.0 mi WNW 25.3 mph 32.2 mph N/A   Clear
2:35 AM 48.2 °F - 35.6 °F 62% 30.01 in 10.0 mi WNW 20.7 mph 29.9 mph N/A   Clear
2:55 AM 48.2 °F - 35.6 °F 62% 30.02 in 10.0 mi WNW 18.4 mph 28.8 mph N/A   Clear
3:15 AM 46.4 °F 38.7 °F 35.6 °F 66% 30.03 in 10.0 mi NW 20.7 mph - N/A   Clear
3:35 AM 46.4 °F 38.7 °F 33.8 °F 62% 30.04 in 10.0 mi WNW 20.7 mph 26.5 mph N/A   Clear
3:55 AM 44.6 °F 36.9 °F 33.8 °F 66% 30.05 in 10.0 mi WNW 18.4 mph 25.3 mph N/A   Clear
4:15 AM 44.6 °F 36.4 °F 33.8 °F 66% 30.05 in 10.0 mi WNW 20.7 mph 26.5 mph N/A   Clear
4:35 AM - - - N/A% 30.05 in 10.0 mi WNW 23.0 mph 28.8 mph N/A   Clear
4:55 AM 42.8 °F 34.8 °F 32.0 °F 66% 30.06 in 10.0 mi WNW 17.3 mph - N/A   Clear
5:15 AM 42.8 °F 33.8 °F 32.0 °F 66% 30.07 in 10.0 mi WNW 21.9 mph 25.3 mph N/A   Clear
5:35 AM 42.8 °F 33.5 °F 32.0 °F 66% 30.07 in 10.0 mi WNW 23.0 mph 29.9 mph N/A   Clear
5:55 AM 42.8 °F 33.8 °F 32.0 °F 66% 30.08 in 10.0 mi WNW 21.9 mph 27.6 mph N/A   Clear
6:15 AM 41.0 °F 32.8 °F 32.0 °F 70% 30.10 in 10.0 mi WNW 16.1 mph - N/A   Clear
6:35 AM 41.0 °F 31.6 °F 32.0 °F 70% 30.10 in 10.0 mi WNW 20.7 mph - N/A   Clear
6:55 AM 42.8 °F 33.8 °F 30.2 °F 61% 30.11 in 10.0 mi WNW 21.9 mph 25.3 mph N/A   Clear
7:15 AM 42.8 °F 33.8 °F 30.2 °F 61% 30.12 in 10.0 mi WNW 21.9 mph 25.3 mph N/A   Clear
7:35 AM 42.8 °F 34.0 °F 30.2 °F 61% 30.13 in 10.0 mi WNW 20.7 mph 25.3 mph N/A   Clear
7:55 AM 42.8 °F 34.3 °F 30.2 °F 61% 30.14 in 10.0 mi NW 19.6 mph 23.0 mph N/A   Clear
8:15 AM 44.6 °F 36.4 °F 30.2 °F 57% 30.15 in 10.0 mi WNW 20.7 mph 25.3 mph N/A   Clear
8:35 AM 44.6 °F 36.4 °F 28.4 °F 53% 30.15 in 10.0 mi NW 20.7 mph 25.3 mph N/A   Clear
8:55 AM 46.4 °F 38.3 °F 28.4 °F 50% 30.15 in 10.0 mi NW 23.0 mph 29.9 mph N/A   Clear
9:15 AM 46.4 °F 38.3 °F 28.4 °F 50% 30.16 in 10.0 mi WNW 23.0 mph 32.2 mph N/A   Mostly Cloudy
9:35 AM 46.4 °F 38.5 °F 28.4 °F 50% 30.16 in 10.0 mi WNW 21.9 mph 33.4 mph N/A   Mostly Cloudy
9:55 AM 46.4 °F 37.0 °F 28.4 °F 50% 30.16 in 10.0 mi WNW 31.1 mph 38.0 mph N/A   Overcast
10:15 AM 46.4 °F 37.5 °F 28.4 °F 50% 30.17 in 10.0 mi WNW 27.6 mph 34.5 mph N/A   Mostly Cloudy
10:35 AM 48.2 °F - 26.6 °F 43% 30.17 in 10.0 mi NW 26.5 mph 34.5 mph N/A   Mostly Cloudy
10:55 AM 48.2 °F - 24.8 °F 40% 30.17 in 10.0 mi NW 29.9 mph 35.7 mph N/A   Mostly Cloudy
11:15 AM 48.2 °F - 24.8 °F 40% 30.17 in 10.0 mi WNW 33.4 mph 39.1 mph N/A   Mostly Cloudy
11:35 AM 50.0 °F - 24.8 °F 37% 30.18 in 10.0 mi WNW 26.5 mph 35.7 mph N/A   Mostly Cloudy
11:55 AM 48.2 °F - 24.8 °F 40% 30.18 in 10.0 mi WNW 26.5 mph 42.6 mph N/A   Mostly Cloudy
12:15 PM 50.0 °F - 21.2 °F 32% 30.17 in 10.0 mi WNW 31.1 mph 38.0 mph N/A   Scattered Clouds
12:35 PM 51.8 °F - 23.0 °F 33% 30.18 in 9.0 mi NW 29.9 mph 36.8 mph N/A   Mostly Cloudy
12:55 PM 51.8 °F - 21.2 °F 30% 30.18 in 10.0 mi WNW 27.6 mph 40.3 mph N/A   Scattered Clouds
1:15 PM 50.0 °F - 21.2 °F 32% 30.18 in 10.0 mi WNW 29.9 mph 35.7 mph N/A   Scattered Clouds
1:35 PM 51.8 °F - 21.2 °F 30% 30.18 in 10.0 mi WNW 29.9 mph 38.0 mph N/A   Scattered Clouds
1:55 PM - - - N/A% 30.17 in 10.0 mi NW 33.4 mph 43.7 mph N/A   Scattered Clouds
2:15 PM 51.8 °F - 19.4 °F 28% 30.18 in 10.0 mi WNW 32.2 mph 40.3 mph N/A   Partly Cloudy
2:35 PM 51.8 °F - 17.6 °F 26% 30.18 in 10.0 mi WNW 27.6 mph 38.0 mph N/A   Partly Cloudy
2:55 PM 53.6 °F - 17.6 °F 24% 30.17 in 10.0 mi WNW 29.9 mph 40.3 mph N/A   Partly Cloudy
3:15 PM 53.6 °F - 17.6 °F 24% 30.17 in 10.0 mi NW 32.2 mph 39.1 mph N/A   Clear
3:35 PM 53.6 °F - 17.6 °F 24% 30.17 in 10.0 mi NW 28.8 mph 38.0 mph N/A   Clear
3:55 PM 53.6 °F - 15.8 °F 22% 30.17 in 10.0 mi NW 24.2 mph 40.3 mph N/A   Clear
4:15 PM 53.6 °F - 15.8 °F 22% 30.16 in 10.0 mi NW 32.2 mph 38.0 mph N/A   Clear
4:35 PM 53.6 °F - 15.8 °F 22% 30.16 in 9.0 mi WNW 26.5 mph 34.5 mph N/A   Clear
4:55 PM 53.6 °F - 15.8 °F 22% 30.17 in 10.0 mi NW 21.9 mph 40.3 mph N/A   Clear
5:15 PM 53.6 °F - 15.8 °F 22% 30.17 in 10.0 mi NW 26.5 mph 33.4 mph N/A   Clear
5:35 PM 53.6 °F - 17.6 °F 24% 30.17 in 10.0 mi NW 24.2 mph 29.9 mph N/A   Clear
5:55 PM 53.6 °F - 15.8 °F 22% 30.17 in 10.0 mi NW 24.2 mph 34.5 mph N/A   Clear
6:15 PM 53.6 °F - 15.8 °F 22% 30.17 in 10.0 mi NW 24.2 mph 32.2 mph N/A   Clear
6:35 PM 51.8 °F - 15.8 °F 24% 30.17 in 10.0 mi WNW 24.2 mph 35.7 mph N/A   Clear
6:55 PM 51.8 °F - 15.8 °F 24% 30.17 in 10.0 mi WNW 24.2 mph 33.4 mph N/A   Clear
7:15 PM 51.8 °F - 15.8 °F 24% 30.17 in 10.0 mi NW 21.9 mph 32.2 mph N/A   Clear
7:35 PM 51.8 °F - 15.8 °F 24% 30.17 in 10.0 mi NW 23.0 mph 27.6 mph N/A   Clear
7:55 PM 50.0 °F - 15.8 °F 26% 30.17 in 10.0 mi NW 20.7 mph 28.8 mph N/A   Clear
8:15 PM 48.2 °F - 14.0 °F 25% 30.17 in 10.0 mi NW 19.6 mph 27.6 mph N/A   Clear
8:35 PM 48.2 °F - 15.8 °F 27% 30.17 in 10.0 mi NW 17.3 mph - N/A   Clear
9:15 PM 46.4 °F 40.1 °F 15.8 °F 29% 30.19 in 10.0 mi NW 15.0 mph 19.6 mph N/A   Clear
9:35 PM 46.4 °F 40.7 °F 17.6 °F 32% 30.19 in 10.0 mi NW 12.7 mph - N/A   Clear
9:55 PM 44.6 °F 38.1 °F 17.6 °F 34% 30.20 in 10.0 mi NW 13.8 mph - N/A   Clear
10:15 PM 44.6 °F 38.4 °F 17.6 °F 34% 30.20 in 10.0 mi NW 12.7 mph - N/A   Clear
10:35 PM 44.6 °F 39.2 °F 17.6 °F 34% 30.20 in 10.0 mi NW 10.4 mph - N/A   Clear
10:55 PM 42.8 °F 37.5 °F 19.4 °F 39% 30.20 in 10.0 mi NW 9.2 mph - N/A   Clear
11:15 PM 42.8 °F 37.5 °F 19.4 °F 39% 30.20 in 10.0 mi WNW 9.2 mph - N/A   Clear
11:35 PM 41.0 °F 35.8 °F 19.4 °F 42% 30.20 in 10.0 mi WNW 8.1 mph - N/A   Clear
11:55 PM 39.2 °F 33.0 °F 19.4 °F 45% 30.21 in 10.0 mi WNW 9.2 mph - N/A   Clear